User: anonymous   Login
Location: Unspecified
(0.0000°N, 0.0000°E)
Time: 10:54:08
(UTC+00:00)
Language:

Tiangong 1 - Orbit

View from above orbital plane
View from above orbital plane
View from above satellite
View from above satellite

Ground track
Ground track

The orbit data is extracted from the following two-line orbital elements,

1 37820U 11053A   17017.15839502  .00011234  00000-0  88172-4 0  9990
2 37820  42.7614  39.8132 0015868  89.7726 339.3945 15.71413976304152
Epoch (UTC): 17 January 2017 03:48:05
Eccentricity: 0.0015868
inclination: 42.7614°
perigee height: 344 km
apogee height: 365 km
right ascension of ascending node: 39.8132°
argument of perigee: 89.7726°
revolutions per day: 15.71413976
mean anomaly at epoch: 339.3945°
orbit number at epoch: 30415

The dashed part of the orbit path shows where the satellite is in the earth's shadow,  

DLR